Weather History for Covington, KY

Change the Weather History Date:

Friday, March 29, 2013

  Actual Average Record
Temperature  
Mean Temperature 42 °F 48 °F  
Max Temperature 56 °F 58 °F 84 °F (1910)
Min Temperature 27 °F 38 °F 18 °F (1964)
Degree Days  
Heating Degree Days 23 17  
Month to date heating degree days 822 633  
Since 1 July heating degree days 4532 4460  
Cooling Degree Days 0 0  
Month to date cooling degree days 0 0  
Year to date cooling degree days 0 0  
Moisture  
Dew Point 27 °F    
Average Humidity 63    
Maximum Humidity 96    
Minimum Humidity 30    
Precipitation  
Precipitation 0.00 in 0.14 in 2.45 in (1985)
Month to date precipitation 3.83 3.68  
Year to date precipitation 9.43 9.49  
Snow  
Snow 0.00 in 0.00 in 2.70 in (1970)
Month to date snowfall 8.8 2.9  
Since 1 July snowfall 25.2 21.5  
Snow Depth 0.00 in    
Sea Level Pressure  
Sea Level Pressure 30.28 in    
Wind  
Wind Speed 3 mph (NNW)    
Max Wind Speed 10 mph    
Max Gust Speed 16 mph    
Visibility 9 miles    
Events      
T = Trace of Precipitation, MM = Missing Value Source: NWS Daily Summary

Daily Weather History Graph

Daily Weather History Graph

Search for Another Location

Airport:

Trip Planner

Search our weather history database for the weather conditions in past years. The results will help you decide how hot, cold, wet, or windy it might be!

Date:

Astronomy

Mar. 29, 2013 Rise Set
Actual Time 7:27 AM EDT 7:59 PM EDT
Civil Twilight 7:00 AM EDT 8:26 PM EDT
Nautical Twilight 6:29 AM EDT 8:58 PM EDT
Astronomical Twilight 5:56 AM EDT 9:30 PM EDT
Moon 10:57 PM EDT (3/29) 8:37 AM EDT (3/29)
Length of Visible Light 13h 25m
Length of Day
12h 32m
Waning Gibbous, 93% of the Moon is Illuminated
Mar 29
Waning Gibbous
Apr 3
Last Quarter
Apr 10
New
Apr 18
First Quarter
Apr 25
Full

Hourly Weather History & Observations

Time (EDT) Temp. Windchill Dew Point Humidity Pressure Visibility Wind Dir Wind Speed Gust Speed Precip Events Conditions
12:52 AM 34.0 °F - 25.0 °F 70% 30.32 in 10.0 mi Calm Calm - N/A   Clear
1:52 AM 36.0 °F 32.1 °F 25.0 °F 64% 30.32 in 10.0 mi NNW 4.6 mph - N/A   Clear
2:52 AM 34.0 °F - 25.0 °F 70% 30.32 in 10.0 mi Calm Calm - N/A   Clear
3:52 AM 32.0 °F - 26.1 °F 79% 30.31 in 10.0 mi Calm Calm - N/A   Partly Cloudy
4:52 AM 30.0 °F - 26.1 °F 85% 30.30 in 8.0 mi Calm Calm - N/A   Scattered Clouds
5:52 AM 30.0 °F - 26.1 °F 85% 30.30 in 9.0 mi Calm Calm - N/A   Mostly Cloudy
6:52 AM 28.0 °F - 24.1 °F 85% 30.31 in 7.0 mi Calm Calm - N/A   Scattered Clouds
7:52 AM 30.9 °F 26.2 °F 28.9 °F 92% 30.31 in 5.0 mi North 4.6 mph - N/A   Scattered Clouds
8:52 AM 34.0 °F - 32.0 °F 92% 30.31 in 6.0 mi Calm Calm - N/A   Mostly Cloudy
9:52 AM 39.9 °F - 30.9 °F 70% 30.34 in 7.0 mi Calm Calm - N/A   Mostly Cloudy
10:52 AM 43.0 °F - 30.0 °F 60% 30.33 in 8.0 mi Calm Calm - N/A   Mostly Cloudy
11:52 AM 48.0 °F - 27.0 °F 44% 30.32 in 10.0 mi Calm Calm - N/A   Scattered Clouds
12:52 PM 51.1 °F - 26.1 °F 38% 30.30 in 10.0 mi Calm Calm - N/A   Scattered Clouds
1:52 PM 53.1 °F - 25.0 °F 34% 30.28 in 10.0 mi Variable 3.5 mph - N/A   Scattered Clouds
2:52 PM 55.0 °F - 25.0 °F 31% 30.25 in 10.0 mi WNW 8.1 mph - N/A   Mostly Cloudy
3:52 PM 53.1 °F - 25.0 °F 34% 30.24 in 10.0 mi Calm Calm - N/A   Overcast
5:52 PM 55.0 °F - 27.0 °F 34% 30.21 in 10.0 mi West 6.9 mph - N/A   Mostly Cloudy
6:52 PM 53.1 °F - 28.0 °F 38% 30.22 in 10.0 mi WNW 5.8 mph - N/A   Overcast
7:52 PM 50.0 °F - 30.0 °F 46% 30.21 in 10.0 mi WNW 3.5 mph - N/A   Mostly Cloudy
8:52 PM 50.0 °F - 28.9 °F 44% 30.22 in 10.0 mi NW 5.8 mph - N/A   Mostly Cloudy
9:52 PM 46.9 °F - 30.0 °F 52% 30.22 in 10.0 mi North 5.8 mph - N/A   Scattered Clouds
10:52 PM 46.9 °F - 30.0 °F 52% 30.23 in 10.0 mi North 5.8 mph - N/A   Mostly Cloudy
11:52 PM 44.1 °F 40.1 °F 30.9 °F 60% 30.24 in 10.0 mi NNE 6.9 mph - N/A   Mostly Cloudy